{"data":{"norad_id":62412,"epoch":"2026-05-29T03:12:55.725120Z","epoch_age_seconds":10055755,"freshness":"OLD","line1":"1 62412U 24249D   26149.13397830  .10547021  89573-5  30232-2 0  9991","line2":"2 62412  42.9843  32.6918 0019292 257.4620 102.4109 16.25960581 82241","mean_motion":16.25960581,"eccentricity":0.0019292,"inclination_deg":42.9843,"raan_deg":32.6918,"arg_perigee_deg":257.462,"mean_anomaly_deg":102.4109,"bstar":0.0030232,"rev_number":8224,"period_min":88.563032636029,"perigee_km":190.72063274767,"apogee_km":216.11490366532,"semimajor_km":6581.5547682065,"source":"CELESTRAK","updated_at":"2026-05-30T09:00:38.302282Z"}}